Date,TemperatureHighF,TemperatureAvgF,TemperatureLowF,DewpointHighF,DewpointAvgF,DewpointLowF,HumidityHigh,HumidityAvg,HumidityLow,PressureMaxIn,PressureMinIn,WindSpeedMaxMPH,WindSpeedAvgMPH,GustSpeedMaxMPH,PrecipitationSumIn
2013-1-1,39.6,36.1,26.2,30.2,24.4,12.2,70,62,52,29.97,29.77,7,3,7,0.00
2013-1-2,34.7,27.7,19.8,17.6,14.2,10.6,69,57,46,30.12,29.95,8,2,8,0.00
2013-1-3,36.3,28.4,19.8,19.5,16.5,11.2,71,61,47,30.15,30.00,7,1,7,0.00
2013-1-4,41.0,34.3,27.9,25.3,22.1,18.5,70,61,48,30.02,29.88,10,3,10,0.00
2013-1-5,45.9,35.3,28.4,25.8,21.8,18.9,75,58,43,30.22,29.95,9,2,9,0.00
2013-1-6,49.8,38.6,31.3,32.7,28.0,24.1,83,66,46,30.16,29.90,7,2,7,0.00
2013-1-7,47.8,35.8,26.8,30.9,24.1,19.3,83,64,39,30.34,29.98,7,1,7,0.00
2013-1-8,51.8,35.2,24.8,34.7,26.5,19.5,86,72,50,30.37,30.26,7,1,7,0.00
2013-1-9,46.4,37.3,26.8,37.2,30.7,22.7,88,77,66,30.33,30.06,9,1,9,0.00
2013-1-10,50.7,41.7,33.1,33.5,26.3,22.8,70,55,38,30.48,30.16,8,2,8,0.00
2013-1-11,43.2,37.4,29.7,37.9,30.9,23.0,91,77,66,30.48,30.04,2,0,2,0.44
2013-1-12,47.5,44.4,40.6,44.4,41.9,38.1,93,91,88,30.11,30.01,4,0,4,0.02
2013-1-13,49.1,46.2,44.2,46.1,44.0,42.2,94,92,88,30.09,29.95,4,0,4,0.01
2013-1-14,56.8,49.4,38.1,54.0,42.9,32.8,95,80,53,30.24,29.82,6,1,6,0.12
2013-1-15,40.5,37.3,35.2,34.0,29.2,26.5,87,73,62,30.30,30.15,5,1,5,0.10
2013-1-16,35.2,33.4,32.0,32.8,30.7,28.0,92,90,75,30.17,29.75,4,1,4,0.28
2013-1-17,45.0,38.1,34.2,32.8,30.0,23.2,92,73,56,30.03,29.83,8,1,8,0.32
2013-1-18,34.0,28.4,25.0,23.8,13.3,7.5,68,53,36,30.42,29.95,9,2,9,0.00
2013-1-19,50.2,39.1,27.0,30.2,24.9,14.7,70,57,44,30.33,29.85,12,4,12,0.00
2013-1-20,53.6,41.4,29.7,32.6,23.7,9.8,78,52,24,29.98,29.61,13,4,13,0.00
2013-1-21,32.9,28.6,21.9,17.9,13.6,7.8,67,53,43,30.03,29.77,7,1,7,0.00
2013-1-22,26.8,20.8,13.6,17.1,3.0,-6.5,67,46,30,30.15,29.76,9,3,9,0.00
2013-1-23,23.7,15.0,10.4,0.6,-2.1,-5.6,64,46,32,30.19,30.09,8,2,8,0.00
2013-1-24,25.7,16.7,9.9,5.0,1.1,-2.2,73,52,32,30.33,30.06,12,3,12,0.00
2013-1-25,27.5,18.7,12.0,14.2,5.7,-1.2,76,57,43,30.35,30.00,8,1,8,0.00
2013-1-26,31.5,19.5,9.7,13.0,7.9,4.0,81,62,39,30.31,29.97,6,1,6,0.02
2013-1-27,38.3,25.0,14.7,15.3,10.4,5.9,74,55,35,30.46,30.30,6,1,6,0.00
2013-1-28,34.2,30.3,22.1,30.8,23.7,11.0,88,77,61,30.43,29.93,7,1,7,0.07
2013-1-29,50.0,39.9,34.2,42.7,35.4,30.7,90,84,71,30.11,29.92,4,0,4,0.14
2013-1-30,56.8,47.0,38.1,54.7,44.3,35.4,94,90,86,30.02,29.27,7,1,7,0.13
2013-1-31,60.1,45.4,29.7,57.6,32.0,10.7,94,61,37,29.71,28.95,16,7,16,0.94
2013-2-1,32.9,28.3,23.5,16.0,12.9,8.4,65,53,37,30.16,29.70,10,3,10,0.00
2013-2-2,32.0,25.0,18.7,18.1,11.7,7.4,76,57,38,30.23,29.99,9,2,9,0.00
2013-2-3,35.6,26.3,20.5,23.9,18.6,14.6,85,73,57,29.99,29.72,6,1,6,0.04
2013-2-4,32.9,27.3,21.6,20.7,12.8,9.4,78,55,40,29.90,29.73,11,3,11,0.00
2013-2-5,32.4,29.2,26.1,26.4,22.1,14.3,86,75,56,29.91,29.82,4,1,4,0.01
2013-2-6,41.4,32.7,24.8,27.4,20.9,6.2,89,64,37,30.29,29.84,9,2,9,0.01
2013-2-7,34.5,27.6,20.7,21.2,12.4,7.0,67,53,42,30.45,30.26,4,1,4,0.00
2013-2-8,34.2,32.2,27.5,31.0,27.8,21.2,93,84,66,30.26,29.57,8,2,8,0.07
2013-2-9,34.2,27.7,19.8,26.1,19.1,7.2,91,72,46,30.27,29.68,9,2,9,0.12
2013-2-10,40.8,24.0,10.2,22.6,13.3,3.3,77,64,44,30.42,30.25,4,0,4,0.05
2013-2-11,41.9,34.5,27.0,38.3,30.6,20.4,92,86,76,30.26,29.59,2,0,2,0.05
2013-2-12,46.6,39.5,30.7,34.6,28.6,22.9,92,66,47,29.90,29.64,8,2,8,0.00
2013-2-13,47.1,34.6,23.0,31.2,25.7,18.9,88,71,52,29.88,29.61,5,1,5,0.02
2013-2-14,49.3,36.6,28.2,33.0,28.8,25.1,90,75,47,29.92,29.64,7,1,7,0.03
2013-2-15,55.8,40.9,30.6,37.6,32.4,26.0,87,73,49,29.93,29.82,9,1,9,0.00
2013-2-16,40.6,35.6,30.9,33.5,26.3,15.3,89,70,52,29.90,29.66,6,2,6,0.06
2013-2-17,33.6,27.0,17.8,15.6,7.2,1.1,54,43,30,29.93,29.58,14,5,14,0.00
2013-2-18,38.5,26.4,16.9,15.2,7.9,2.3,55,46,30,30.15,29.93,8,3,8,0.00
2013-2-19,47.8,36.7,24.3,39.5,27.2,13.3,88,69,51,30.12,29.59,12,2,12,0.28
2013-2-20,37.2,31.3,25.3,25.8,15.8,10.1,65,53,41,29.90,29.64,12,4,12,0.00
2013-2-21,36.1,28.4,24.3,15.8,13.2,10.8,65,53,42,30.21,29.88,10,4,10,0.00
2013-2-22,41.4,32.4,24.1,28.3,21.7,14.0,73,65,52,30.33,30.18,6,1,6,0.00
2013-2-23,41.7,37.2,34.0,38.7,33.6,27.8,92,87,73,30.20,29.74,6,1,6,0.10
2013-2-24,47.7,39.0,32.4,38.6,31.6,22.6,93,76,54,29.89,29.65,9,2,9,0.02
2013-2-25,46.4,37.5,26.1,30.4,26.3,20.6,83,65,49,30.16,29.89,5,1,5,0.00
2013-2-26,45.0,37.2,28.0,36.1,30.1,23.1,88,76,65,30.21,29.82,11,2,11,0.10
2013-2-27,46.9,42.2,36.3,44.4,39.3,33.1,92,90,82,29.83,29.40,16,4,16,0.58
2013-2-28,51.1,42.8,38.3,41.2,35.4,30.6,93,76,56,29.54,29.45,5,1,5,0.00
2013-3-1,47.1,39.0,29.8,33.5,29.1,25.0,87,68,51,29.70,29.51,7,2,7,0.01
2013-3-2,41.9,36.4,31.6,27.5,25.3,23.7,78,64,52,29.69,29.61,7,2,7,0.00
2013-3-3,44.1,33.6,28.4,24.3,20.2,16.7,74,58,42,29.69,29.57,8,3,8,0.00
2013-3-4,43.2,33.8,27.0,23.3,19.7,15.8,68,57,42,29.83,29.67,13,4,13,0.00
2013-3-5,50.9,38.7,29.8,29.7,24.5,20.4,69,57,41,29.94,29.81,7,2,7,0.00
2013-3-6,46.4,40.4,37.6,34.9,30.8,27.0,78,69,63,29.90,29.77,15,5,15,0.00
2013-3-7,39.7,36.4,32.9,32.9,29.6,26.0,91,77,63,30.00,29.83,10,3,10,0.12
2013-3-8,41.4,35.8,31.6,33.7,30.9,27.3,93,83,63,30.11,29.92,6,1,6,0.42
2013-3-9,57.2,42.4,32.7,29.3,24.4,20.1,68,51,25,30.24,30.09,7,2,7,0.10
2013-3-10,53.2,39.3,27.5,39.7,30.4,21.8,86,71,57,30.31,30.21,6,1,6,0.00
2013-3-11,58.5,47.3,37.4,46.3,40.4,31.5,86,77,63,30.24,30.01,7,2,7,0.00
2013-3-12,55.4,51.1,43.0,52.6,47.0,36.9,92,86,73,30.01,29.57,10,3,10,1.06
2013-3-13,53.1,42.4,32.9,36.9,30.7,24.0,89,66,36,29.80,29.69,9,2,9,0.00
2013-3-14,44.2,35.3,29.5,28.3,14.4,7.3,67,43,26,29.88,29.74,12,5,12,0.00
2013-3-15,45.7,37.3,28.4,30.3,20.0,8.9,61,49,38,29.89,29.61,10,3,10,0.00
2013-3-16,42.4,35.3,31.3,29.2,25.3,20.1,86,68,52,29.83,29.69,5,1,5,0.05
2013-3-17,41.0,33.4,27.7,28.7,19.7,13.8,87,59,37,30.23,29.82,7,2,7,0.01
2013-3-18,38.5,31.1,24.1,29.8,18.4,9.9,87,60,47,30.34,29.94,6,2,6,0.00
2013-3-19,45.7,37.4,33.4,37.2,32.8,28.3,91,84,68,29.94,29.61,8,2,8,0.62
2013-3-20,46.6,37.5,30.2,28.5,21.8,17.2,73,54,34,29.80,29.69,12,3,12,0.00
2013-3-21,43.2,35.8,31.5,26.5,18.2,12.0,76,50,33,29.76,29.54,7,2,7,0.00
2013-3-22,43.7,34.7,27.0,22.1,18.0,12.7,65,51,39,29.80,29.63,9,2,9,0.00
2013-3-23,46.8,38.8,30.2,23.3,20.6,18.3,63,49,35,29.85,29.72,10,4,10,0.00
2013-3-24,49.5,38.6,27.1,26.1,21.7,16.9,68,52,37,29.87,29.62,9,1,9,0.00
2013-3-25,43.9,39.6,37.2,33.6,28.5,24.6,82,65,50,29.62,29.38,9,2,9,0.05
2013-3-26,53.1,41.5,31.3,33.4,28.1,23.7,85,61,39,29.77,29.50,9,1,9,0.00
2013-3-27,55.8,42.0,30.6,30.7,25.9,21.9,73,55,29,29.88,29.77,9,2,9,0.00
2013-3-28,52.2,42.9,31.3,35.4,29.6,24.6,80,60,46,30.02,29.86,8,2,8,0.00
2013-3-29,56.7,45.9,34.0,31.9,28.7,25.6,74,52,34,30.05,29.95,8,2,8,0.00
2013-3-30,62.2,45.5,31.3,32.8,25.8,20.4,80,50,22,30.08,29.96,7,1,7,0.00
2013-3-31,57.9,44.5,30.7,41.9,32.7,23.5,87,64,40,30.03,29.59,9,2,9,0.13
2013-4-1,63.5,47.7,37.0,46.6,36.5,12.9,91,68,35,29.82,29.51,15,3,15,0.02
2013-4-2,47.8,37.5,28.2,18.2,14.6,11.2,57,40,25,30.00,29.82,13,3,13,0.00
2013-4-3,49.6,38.8,31.5,17.5,13.7,10.5,49,36,24,30.21,29.98,10,4,10,0.00
2013-4-4,57.6,41.6,26.8,28.7,21.4,12.9,62,45,31,30.31,29.99,8,2,8,0.00
2013-4-5,64.2,49.3,39.7,30.4,24.6,16.9,62,41,19,29.99,29.61,10,3,10,0.00
2013-4-6,57.2,43.0,34.0,25.1,16.9,8.6,60,37,17,30.22,29.91,8,2,8,0.00
2013-4-7,61.9,48.5,36.7,42.5,34.3,25.1,69,59,43,30.21,29.89,9,3,9,0.00
2013-4-8,75.0,57.8,42.6,45.9,42.4,37.5,84,60,32,29.98,29.88,6,1,6,0.00
2013-4-9,81.3,65.9,50.5,52.9,43.8,34.5,82,50,19,29.91,29.80,8,2,8,0.00
2013-4-10,75.4,63.1,53.2,56.4,49.4,40.3,89,62,40,29.90,29.71,5,1,5,0.35
2013-4-11,63.0,56.0,47.8,55.5,48.8,40.0,91,77,61,29.96,29.68,6,2,6,0.01
2013-4-12,47.8,43.7,41.2,40.7,39.0,36.5,91,84,72,29.95,29.62,12,3,12,0.34
2013-4-13,58.5,48.4,39.9,42.0,37.9,33.6,91,70,43,29.87,29.65,7,1,7,0.04
2013-4-14,57.2,51.3,46.2,40.5,33.6,28.4,74,52,34,30.13,29.86,9,2,9,0.00
2013-4-15,60.6,50.3,41.2,38.6,33.1,27.7,67,52,41,30.29,30.13,6,1,6,0.00
2013-4-16,66.7,57.0,47.3,55.0,47.4,35.3,78,70,63,30.29,30.01,8,2,8,0.00
2013-4-17,70.2,61.4,52.2,54.9,46.2,37.7,83,59,34,30.20,30.01,6,1,6,0.00
2013-4-18,61.0,54.0,46.4,51.7,43.7,37.6,85,69,46,30.25,30.00,6,1,6,0.00
2013-4-19,73.6,64.4,56.1,63.6,58.3,51.7,90,81,68,30.00,29.54,7,2,7,0.13
2013-4-20,63.3,53.8,46.0,59.8,36.9,24.6,89,56,30,30.21,29.55,9,2,9,0.12
2013-4-21,55.6,45.5,36.3,29.5,24.5,20.0,58,44,29,30.52,30.21,7,2,7,0.00
2013-4-22,56.8,47.1,37.0,38.9,33.2,28.7,75,59,39,30.57,30.39,8,2,8,0.00
2013-4-23,53.1,45.7,39.9,42.1,36.8,30.6,84,71,66,30.40,30.01,6,2,6,0.00
2013-4-24,70.9,53.3,38.1,52.7,44.0,33.7,87,72,51,30.02,29.72,8,1,8,0.00
2013-4-25,67.3,56.3,46.4,51.6,33.7,24.8,80,45,23,30.16,29.74,9,2,9,0.00
2013-4-26,67.5,54.4,40.6,38.7,33.5,25.4,80,49,22,30.31,30.16,6,1,6,0.00
2013-4-27,70.9,56.4,40.6,38.8,32.4,28.9,67,42,26,30.33,30.17,5,1,5,0.00
2013-4-28,70.3,56.6,43.5,45.2,35.9,30.8,70,47,31,30.21,30.10,6,1,6,0.00
2013-4-29,56.5,55.2,53.2,49.2,46.2,39.4,79,72,54,30.14,30.08,4,0,4,0.06
2013-4-30,68.0,58.0,48.7,48.3,41.3,30.4,78,57,31,30.24,30.10,6,1,6,0.00
2013-5-1,69.1,55.4,40.3,48.0,39.2,30.7,79,56,39,30.39,30.23,6,1,6,0.00
2013-5-2,73.4,57.9,42.8,48.1,42.6,38.0,85,60,35,30.37,30.21,6,1,6,0.00
2013-5-3,67.1,57.0,49.3,44.8,40.4,36.0,72,55,37,30.36,30.24,5,1,5,0.00
2013-5-4,69.4,55.3,43.9,48.3,42.8,38.9,87,65,43,30.27,30.13,6,1,6,0.00
2013-5-5,64.8,52.7,42.6,46.7,40.6,36.4,84,65,41,30.20,30.11,6,1,6,0.00
2013-5-6,70.0,56.6,44.2,55.5,47.2,38.0,84,72,56,30.17,30.04,5,1,5,0.00
2013-5-7,73.4,60.9,48.6,59.9,52.7,44.3,89,75,61,30.07,29.98,6,1,6,0.00
2013-5-8,65.3,60.5,54.1,61.3,56.9,50.8,93,88,79,30.00,29.86,4,1,4,1.76
2013-5-9,66.0,58.5,51.8,60.7,55.4,49.5,94,90,81,29.90,29.77,4,0,4,0.66
2013-5-10,77.2,63.9,51.8,60.1,55.6,49.5,94,76,50,29.88,29.77,5,1,5,0.01
2013-5-11,68.4,63.5,60.8,64.0,60.3,56.3,93,90,80,29.79,29.58,6,1,6,0.49
2013-5-12,66.4,61.2,51.1,58.8,38.0,27.6,93,44,28,29.82,29.56,9,2,9,0.01
2013-5-13,56.1,49.9,44.4,34.4,31.0,26.3,63,49,33,29.99,29.82,8,1,8,0.00
2013-5-14,62.4,49.9,37.8,34.9,31.5,27.4,80,52,28,30.01,29.90,6,1,6,0.00
2013-5-15,69.8,57.1,42.6,57.4,46.8,33.0,78,69,54,29.95,29.55,6,1,6,0.00
2013-5-16,80.6,67.0,54.5,57.4,53.9,49.5,88,65,41,29.71,29.59,6,1,6,0.00
2013-5-17,73.2,63.5,55.9,50.9,44.1,39.8,69,50,35,30.08,29.71,5,1,5,0.00
2013-5-18,65.3,58.7,50.4,52.8,48.8,43.1,83,70,53,30.18,30.08,5,1,5,0.01
2013-5-19,59.2,57.8,56.3,56.6,54.0,50.0,92,87,74,30.20,30.05,4,0,4,0.30
2013-5-20,78.3,66.9,57.4,67.6,61.5,55.3,94,84,67,30.05,29.83,7,1,7,0.00
2013-5-21,84.6,74.1,62.6,71.2,66.2,59.9,93,77,63,29.86,29.71,6,2,6,0.00
2013-5-22,80.1,70.4,60.1,71.4,64.3,56.1,88,81,75,29.82,29.70,5,1,5,0.00
2013-5-23,76.5,70.6,65.7,70.3,66.6,63.3,93,87,76,29.77,29.62,5,1,5,0.88
2013-5-24,65.8,56.0,45.9,63.6,52.9,42.2,93,89,81,29.82,29.54,7,1,7,0.31
2013-5-25,53.2,48.9,44.6,47.2,43.4,39.7,92,82,66,29.87,29.76,7,2,7,0.28
2013-5-26,66.2,55.6,46.9,42.1,39.7,36.8,76,57,37,30.06,29.80,9,2,9,0.12
2013-5-27,74.3,59.5,44.6,45.0,41.5,38.0,82,55,29,30.11,29.97,6,1,6,0.06
2013-5-28,66.4,57.7,51.1,55.7,50.5,43.2,91,78,55,30.08,29.98,5,0,5,0.33
2013-5-29,83.3,68.8,57.9,69.7,62.1,55.6,93,81,59,30.00,29.85,7,1,7,0.00
2013-5-30,89.1,78.5,66.9,68.3,65.3,62.9,89,66,44,29.99,29.90,6,1,6,0.00
2013-5-31,88.0,78.8,67.6,70.2,65.6,61.8,87,65,46,29.99,29.84,5,1,5,0.00
2013-6-1,92.7,79.9,69.4,73.7,67.1,62.0,84,66,48,29.88,29.76,7,2,7,0.01
2013-6-2,90.3,79.7,72.7,73.2,68.3,65.8,81,69,53,29.78,29.63,9,3,9,0.18
2013-6-3,79.7,71.3,66.6,69.5,65.6,51.3,92,83,58,29.75,29.66,5,1,5,0.85
2013-6-4,78.3,65.5,56.3,51.8,46.6,43.6,65,51,35,29.98,29.75,7,2,7,0.00
2013-6-5,78.4,63.7,50.5,55.5,48.6,42.7,79,59,42,30.06,29.97,6,1,6,0.00
2013-6-6,72.1,62.8,54.3,58.5,54.3,48.7,89,75,54,29.99,29.87,8,1,8,0.19
2013-6-7,61.5,60.2,59.0,59.5,58.0,56.4,94,92,89,29.87,29.48,8,1,8,2.84
2013-6-8,77.0,66.0,56.3,67.9,60.7,54.6,95,84,67,29.90,29.44,6,1,6,0.22
2013-6-9,81.0,69.5,58.3,63.1,59.7,55.4,92,73,51,30.02,29.90,8,1,8,0.00
2013-6-10,71.4,65.0,61.7,66.2,61.5,59.1,93,89,79,30.01,29.67,5,0,5,1.38
2013-6-11,80.2,69.4,62.2,69.3,64.6,60.2,95,85,66,29.67,29.45,8,2,8,0.19
2013-6-12,78.6,68.9,61.9,60.4,56.1,53.3,84,65,46,29.70,29.54,7,2,7,0.00
2013-6-13,64.2,60.5,56.3,60.3,57.1,53.5,93,88,75,29.69,29.32,7,1,7,0.78
2013-6-14,76.5,61.4,52.9,63.4,54.8,50.9,93,80,57,29.72,29.37,6,1,6,0.41
2013-6-15,83.1,68.2,56.7,59.3,55.0,52.4,89,66,38,29.85,29.72,6,1,6,0.00
2013-6-16,81.3,69.6,57.4,64.6,59.0,52.1,86,70,51,29.83,29.61,9,2,9,0.00
2013-6-17,89.6,75.4,65.1,68.8,64.4,60.6,88,70,50,29.75,29.66,8,2,8,0.00
2013-6-18,83.3,68.8,63.3,70.0,63.6,59.8,92,84,61,29.74,29.65,5,0,5,0.91
2013-6-19,81.0,66.4,57.6,60.8,55.3,50.5,93,70,40,30.00,29.72,6,1,6,0.03
2013-6-20,85.1,68.8,55.8,64.4,57.1,51.0,87,68,47,30.10,30.00,6,1,6,0.00
2013-6-21,84.7,71.7,59.7,65.7,57.5,50.5,83,62,47,30.14,30.05,7,2,7,0.00
2013-6-22,86.4,72.4,59.7,67.2,59.2,52.1,78,64,51,30.10,29.96,7,2,7,0.00
2013-6-23,88.5,76.3,66.9,72.9,66.6,58.6,86,72,58,30.03,29.88,7,2,7,0.00
2013-6-24,93.6,80.5,72.9,73.8,69.2,63.6,88,70,47,29.91,29.76,6,2,6,0.00
2013-6-25,92.7,78.9,68.9,74.6,68.3,63.4,89,71,53,29.83,29.62,12,2,12,0.00
2013-6-26,86.0,79.2,73.8,71.9,68.2,65.7,78,69,60,29.67,29.59,5,1,5,0.00
2013-6-27,88.0,77.7,71.6,74.9,70.2,67.2,91,78,63,29.64,29.18,7,1,7,0.52
2013-6-28,86.7,77.5,72.0,74.5,69.8,65.4,91,78,60,29.23,29.01,9,2,9,0.38
2013-6-29,87.3,77.0,69.4,72.2,68.1,64.6,86,74,59,29.65,28.98,5,1,5,0.00
2013-6-30,82.4,76.2,70.0,75.6,71.0,66.7,91,84,75,29.87,29.65,6,1,6,0.00
2013-7-1,77.4,74.0,72.1,74.1,71.3,69.1,94,91,86,30.01,29.85,5,0,5,1.59
2013-7-2,87.3,77.3,72.5,78.3,72.9,70.4,94,87,72,30.13,30.00,8,2,8,0.01
2013-7-3,85.6,77.8,72.9,77.2,72.4,68.4,89,84,75,30.20,30.11,6,2,6,0.00
2013-7-4,90.7,81.6,75.0,77.2,73.6,70.9,92,78,61,30.20,30.09,8,2,8,0.01
2013-7-5,92.8,82.8,75.4,77.9,72.7,70.4,89,73,57,30.16,30.03,7,2,7,0.00
2013-7-6,93.2,84.3,76.8,75.2,72.5,70.7,83,69,53,30.08,29.96,7,2,7,0.00
2013-7-7,96.6,84.5,72.5,77.4,73.0,67.4,89,70,50,30.00,29.87,7,2,7,0.20
2013-7-8,92.5,79.1,70.0,73.3,68.9,66.6,89,73,50,29.99,29.90,6,2,6,0.00
2013-7-9,90.3,80.3,71.2,73.7,69.2,65.5,86,70,52,30.02,29.92,6,1,6,0.00
2013-7-10,90.0,81.6,75.2,77.2,71.9,68.1,83,73,58,29.95,29.73,8,2,8,0.01
2013-7-11,86.4,79.7,72.9,73.5,70.1,64.6,86,73,57,29.87,29.74,6,1,6,0.03
2013-7-12,78.3,73.3,67.5,68.8,65.7,62.4,90,77,70,30.05,29.86,5,1,5,0.10
2013-7-13,83.1,73.8,66.9,76.0,69.6,63.9,92,87,77,30.22,30.05,4,1,4,0.07
2013-7-14,92.7,82.1,73.2,76.3,72.8,70.2,92,75,54,30.28,30.16,7,1,7,0.00
2013-7-15,94.5,84.7,77.4,75.5,72.4,69.4,81,68,45,30.19,30.06,5,1,5,0.00
2013-7-16,93.0,83.0,72.9,72.9,69.3,66.1,87,66,43,30.15,30.06,6,1,6,0.00
2013-7-17,96.3,84.5,74.5,74.4,70.9,67.8,84,65,41,30.13,29.99,5,1,5,0.00
2013-7-18,97.9,86.9,75.7,76.7,72.4,70.1,87,64,44,30.00,29.87,6,1,6,0.00
2013-7-19,99.0,88.7,79.9,77.3,74.2,72.0,78,63,45,29.90,29.71,10,2,10,0.00
2013-7-20,95.7,86.0,79.9,75.2,71.1,65.2,72,62,47,29.77,29.65,6,2,6,0.00
2013-7-21,88.7,80.4,74.1,71.1,66.5,60.7,84,64,45,29.90,29.77,4,1,4,0.01
2013-7-22,82.8,76.7,73.0,75.1,70.6,63.7,92,82,66,29.90,29.74,2,0,2,0.51
2013-7-23,89.1,77.8,72.3,76.2,72.3,69.8,94,84,60,29.74,29.48,7,1,7,0.61
2013-7-24,81.1,74.7,68.0,71.5,65.5,53.4,93,74,54,29.87,29.55,7,2,7,0.00
2013-7-25,67.8,65.2,62.6,58.8,54.8,49.7,79,69,60,29.99,29.87,6,2,6,0.01
2013-7-26,83.3,72.5,64.8,67.4,61.0,58.3,81,68,51,29.97,29.92,5,1,5,0.00
2013-7-27,88.0,74.0,65.1,70.0,64.3,59.9,88,73,54,29.99,29.89,6,1,6,0.00
2013-7-28,80.8,72.1,66.2,71.4,66.3,62.3,91,82,70,29.92,29.85,5,1,5,0.25
2013-7-29,86.0,75.0,68.0,70.3,64.3,55.1,93,72,41,30.03,29.89,6,1,6,0.22
2013-7-30,83.1,70.2,59.4,60.3,57.6,54.5,86,66,45,30.09,30.03,6,1,6,0.01
2013-7-31,82.8,70.9,60.4,64.4,60.5,55.9,87,71,51,30.09,29.96,5,1,5,0.00
2013-8-1,74.1,68.9,66.6,67.1,64.5,61.8,93,86,75,29.98,29.76,6,1,6,0.56
2013-8-2,86.0,73.3,64.6,67.6,64.1,60.2,94,75,48,29.84,29.72,7,1,7,0.00
2013-8-3,81.0,71.3,66.9,69.6,63.6,59.1,85,77,63,29.84,29.77,9,1,9,0.06
2013-8-4,82.2,69.8,60.3,62.9,57.9,52.1,91,68,42,29.90,29.78,7,1,7,0.00
2013-8-5,79.7,66.9,56.5,55.0,51.8,45.4,85,60,38,29.99,29.90,6,1,6,0.00
2013-8-6,81.0,68.3,56.5,62.2,57.1,51.9,88,69,50,30.06,29.97,5,1,5,0.00
2013-8-7,78.6,71.5,66.7,67.8,64.0,60.0,87,77,67,30.08,29.99,6,1,6,0.00
2013-8-8,83.3,73.5,68.9,75.6,69.6,65.7,91,88,76,30.00,29.93,6,1,6,0.23
2013-8-9,88.9,76.7,72.5,77.7,72.6,69.4,93,88,68,29.95,29.72,7,2,7,0.28
2013-8-10,86.0,74.3,65.8,70.9,64.0,58.1,93,73,47,29.98,29.79,7,1,7,0.00
2013-8-11,81.7,70.0,58.6,63.0,58.6,54.1,88,69,49,30.05,29.95,5,1,5,0.00
2013-8-12,85.3,73.6,68.0,68.6,65.5,61.7,90,77,54,29.97,29.85,4,0,4,0.07
2013-8-13,78.3,71.3,67.3,70.7,67.0,63.7,92,87,75,29.86,29.62,10,0,10,0.55
2013-8-14,74.7,65.7,56.8,64.6,54.3,49.3,91,68,50,29.97,29.68,8,2,8,0.00
2013-8-15,80.4,64.8,52.9,56.4,52.3,49.1,89,67,41,30.06,29.97,6,1,6,0.00
2013-8-16,81.9,67.5,56.3,59.7,55.1,51.9,88,67,41,30.13,30.04,5,0,5,0.00
2013-8-17,83.5,68.7,57.4,62.7,57.7,53.2,88,69,45,30.20,30.13,4,0,4,0.00
2013-8-18,75.6,68.6,63.0,64.3,60.5,57.0,86,76,63,30.19,30.05,3,0,3,0.00
2013-8-19,80.2,70.1,61.7,65.8,61.7,57.3,89,76,59,30.06,29.95,6,1,6,0.28
2013-8-20,89.1,74.5,62.6,67.5,63.8,59.0,91,71,45,30.05,29.96,8,1,8,0.24
2013-8-21,91.4,76.6,64.9,68.0,63.9,60.6,88,67,42,30.11,29.97,5,1,5,0.64
2013-8-22,77.2,72.7,69.4,72.3,67.5,62.5,89,84,74,29.99,29.80,8,1,8,0.13
2013-8-23,80.2,72.8,65.3,68.5,61.4,53.9,91,70,43,30.03,29.80,6,1,6,0.25
2013-8-24,82.6,69.3,59.4,58.3,54.7,51.4,78,61,41,30.28,30.03,6,1,6,0.01
2013-8-25,88.9,70.0,56.7,62.7,56.4,52.5,89,65,37,30.32,30.15,7,1,7,0.00
2013-8-26,80.4,73.5,67.6,67.9,61.7,55.9,84,67,60,30.16,29.82,6,2,6,0.07
2013-8-27,87.1,76.7,70.5,70.3,67.8,66.3,88,75,56,29.83,29.73,7,2,7,0.10
2013-8-28,84.2,73.2,68.2,72.9,68.3,64.7,91,85,65,29.82,29.77,8,0,8,0.11
2013-8-29,80.4,73.2,69.6,70.9,67.7,64.4,92,83,68,29.95,29.81,4,0,4,0.01
2013-8-30,88.5,76.0,68.5,72.4,67.8,64.6,90,77,55,29.95,29.77,6,2,6,0.00
2013-8-31,85.8,78.4,71.8,75.4,71.2,67.5,88,79,69,29.79,29.69,7,2,7,0.00
2013-9-1,85.6,78.0,73.2,76.7,72.0,69.7,90,82,72,29.78,29.70,5,1,5,0.09
2013-9-2,81.7,76.3,72.5,76.2,72.2,68.9,91,87,79,29.72,29.63,4,0,4,0.04
2013-9-3,84.9,73.5,65.8,69.6,63.8,56.7,92,74,46,29.81,29.63,6,1,6,0.02
2013-9-4,90.3,71.5,61.3,64.1,58.0,52.6,83,65,39,29.92,29.80,8,1,8,0.00
2013-9-5,80.6,69.1,57.9,61.3,53.0,42.5,81,59,31,30.07,29.84,6,1,6,0.00
2013-9-6,79.3,60.9,50.0,49.8,45.5,41.5,80,59,33,30.17,30.05,6,1,6,0.00
2013-9-7,86.7,65.4,49.3,56.5,49.9,44.3,85,61,32,30.05,29.81,7,1,7,0.00
2013-9-8,82.8,70.7,60.1,64.1,54.2,44.4,75,57,33,29.99,29.73,6,1,6,0.00
2013-9-9,74.7,63.1,50.7,58.0,49.3,42.5,78,61,44,30.15,29.99,6,1,6,0.00
2013-9-10,89.4,76.8,66.6,73.9,67.1,57.8,81,73,58,30.07,29.95,6,2,6,0.00
2013-9-11,95.0,83.7,73.8,77.7,73.1,69.1,87,71,56,30.03,29.87,6,2,6,0.00
2013-9-12,86.4,77.7,68.7,74.6,69.9,65.1,91,77,62,29.90,29.58,5,1,5,1.53
2013-9-13,75.7,67.7,57.9,66.0,59.8,48.2,93,77,53,29.76,29.54,5,1,5,0.06
2013-9-14,67.5,58.0,49.8,51.2,47.2,44.6,84,68,52,30.03,29.76,6,1,6,0.00
2013-9-15,73.6,57.9,45.3,50.6,46.8,41.9,89,69,41,30.12,29.98,5,0,5,0.00
2013-9-16,71.6,62.5,56.5,57.7,53.1,45.8,87,73,52,30.16,29.93,5,0,5,0.01
2013-9-17,65.1,54.8,47.3,45.7,41.1,37.6,80,61,44,30.34,30.16,5,1,5,0.00
2013-9-18,74.3,56.7,43.2,50.2,45.5,39.6,89,69,38,30.25,30.08,5,1,5,0.00
2013-9-19,78.8,60.6,46.8,54.7,49.6,43.4,89,69,40,30.09,29.96,5,0,5,0.00
2013-9-20,80.4,63.3,50.2,61.3,54.2,46.8,90,74,47,30.00,29.89,5,1,5,0.00
2013-9-21,79.3,67.3,54.0,66.3,60.5,50.5,90,79,63,29.91,29.55,7,1,7,0.24
2013-9-22,68.7,62.0,53.2,65.5,52.2,42.2,91,72,49,29.82,29.54,6,1,6,0.43
2013-9-23,66.9,54.7,44.6,45.9,42.8,40.0,85,65,45,29.95,29.82,6,1,6,0.00
2013-9-24,73.8,55.6,41.9,48.6,43.6,38.0,88,67,37,29.95,29.76,5,1,5,0.00
2013-9-25,74.3,57.4,44.6,52.0,46.8,40.7,88,69,44,29.85,29.76,4,0,4,0.00
2013-9-26,72.3,60.0,49.1,58.4,52.2,45.7,91,77,55,30.00,29.84,4,0,4,0.00
2013-9-27,68.4,59.3,51.1,56.1,51.7,47.0,89,77,63,30.17,30.00,4,0,4,0.00
2013-9-28,74.5,61.2,51.1,57.4,52.1,48.0,91,73,49,30.23,30.14,5,1,5,0.00
2013-9-29,72.9,60.1,49.8,59.1,52.5,46.2,90,77,58,30.14,29.98,4,0,4,0.00
2013-9-30,74.3,59.3,47.8,56.6,51.0,44.8,92,76,51,29.99,29.86,4,0,4,0.00
2013-10-1,81.0,63.5,49.5,60.1,54.3,46.1,91,74,47,29.90,29.78,5,0,5,0.00
2013-10-2,84.9,67.8,54.7,64.8,58.3,51.5,91,74,47,29.91,29.80,6,1,6,0.00
2013-10-3,78.6,66.1,54.7,60.8,56.6,51.5,91,73,48,30.03,29.91,4,0,4,0.00
2013-10-4,85.8,69.7,59.5,68.2,62.1,55.7,89,78,53,29.96,29.85,5,0,5,0.02
2013-10-5,78.4,68.4,64.2,67.4,62.5,60.1,88,82,68,30.00,29.92,3,0,3,0.01
2013-10-6,68.2,66.5,65.3,64.5,63.0,61.7,91,89,84,30.00,29.93,3,0,3,0.00
2013-10-7,75.6,67.3,57.7,70.9,63.9,53.3,93,89,78,29.93,29.64,8,1,8,0.43
2013-10-8,66.2,56.0,47.8,53.6,48.1,45.3,92,76,52,30.22,29.88,5,0,5,0.01
2013-10-9,63.0,54.8,48.0,50.0,46.4,42.1,84,74,60,30.30,30.19,5,1,5,0.00
2013-10-10,62.6,57.1,52.0,54.2,50.0,45.2,82,77,73,30.19,29.97,5,1,5,0.00
2013-10-11,68.2,63.1,58.8,59.8,56.3,52.1,81,78,74,29.99,29.90,4,1,4,0.00
2013-10-12,72.5,63.9,56.8,56.7,50.6,39.7,79,63,35,30.18,29.97,7,2,7,0.00
2013-10-13,65.8,58.4,53.8,53.3,49.9,47.9,82,74,63,30.29,30.18,6,2,6,0.00
2013-10-14,69.8,56.9,48.9,52.9,48.9,44.6,89,76,53,30.26,30.13,4,0,4,0.00
2013-10-15,73.8,57.4,47.1,58.1,50.2,44.2,91,78,56,30.15,30.00,2,0,2,0.00
2013-10-16,68.4,59.1,50.7,58.7,53.3,46.7,89,81,70,30.00,29.79,4,0,4,0.00
2013-10-17,75.2,66.0,61.2,63.1,59.8,57.1,90,81,66,29.80,29.56,5,1,5,0.01
2013-10-18,70.0,61.8,51.8,61.3,48.5,41.2,87,63,43,29.87,29.55,8,2,8,0.00
2013-10-19,64.2,54.0,42.8,52.3,45.3,38.6,88,73,54,29.87,29.62,6,1,6,0.00
2013-10-20,65.5,54.3,45.1,52.1,41.3,36.5,81,63,35,29.94,29.62,7,1,7,0.00
2013-10-21,69.4,52.4,39.2,45.1,40.3,34.8,87,66,39,30.03,29.86,6,1,6,0.00
2013-10-22,65.5,54.0,44.4,52.4,45.2,38.6,88,73,58,29.86,29.62,1,0,1,0.01
2013-10-23,55.4,46.9,39.7,42.8,38.0,35.0,88,72,53,29.69,29.49,0,0,0,0.00
2013-10-24,54.7,45.3,37.2,35.4,31.8,27.4,80,61,39,29.88,29.62,0,0,0,0.00
2013-10-25,55.8,43.7,34.3,35.4,30.4,26.9,77,61,38,30.11,29.88,0,0,0,0.00
2013-10-26,57.6,44.5,31.6,36.6,31.4,27.1,86,62,39,30.10,29.77,12,1,12,0.00
2013-10-27,58.6,49.5,39.9,35.6,32.6,30.2,70,53,39,30.00,29.72,7,1,7,0.00
2013-10-28,63.0,46.6,33.3,38.1,33.2,27.9,84,62,38,30.20,30.00,7,1,7,0.00
2013-10-29,55.8,45.9,39.4,35.2,32.6,30.3,74,60,45,30.30,30.20,5,0,5,0.00
2013-10-30,58.1,47.8,39.0,48.0,40.4,31.8,86,76,66,30.23,30.05,4,0,4,0.00
2013-10-31,64.8,54.6,42.1,59.0,50.0,38.5,90,85,76,30.11,29.67,5,1,5,0.00
2013-11-1,70.5,64.2,54.3,62.5,57.1,50.2,87,78,59,29.67,29.42,10,2,10,0.11
2013-11-2,67.5,55.3,48.0,52.3,46.4,39.0,91,74,49,29.66,29.48,5,0,5,0.00
2013-11-3,51.8,44.4,35.1,40.6,32.6,21.1,83,64,48,30.33,29.65,8,2,8,0.00
2013-11-4,48.6,37.9,31.8,25.4,21.1,18.4,68,51,34,30.53,30.33,6,1,6,0.00
2013-11-5,56.5,44.7,33.4,41.5,34.8,25.4,79,69,56,30.53,30.34,4,0,4,0.00
2013-11-6,65.1,51.2,38.8,49.5,43.4,35.0,89,75,56,30.36,29.94,6,1,6,0.00
2013-11-7,62.4,52.7,37.8,56.4,46.8,31.5,89,81,62,29.94,29.61,6,1,6,0.13
2013-11-8,49.8,42.4,37.4,33.4,29.4,24.8,80,61,42,30.08,29.80,6,1,6,0.00
2013-11-9,50.7,43.0,32.5,32.1,29.0,25.0,76,58,45,30.16,29.89,5,1,5,0.00
2013-11-10,59.7,48.1,40.6,39.1,33.9,29.9,73,59,39,29.92,29.66,10,2,10,0.00
2013-11-11,53.6,48.0,41.2,32.9,29.5,25.0,55,49,42,30.07,29.82,7,2,7,0.00
2013-11-12,50.2,38.4,30.0,35.0,23.7,15.3,77,56,45,30.15,29.79,9,2,9,0.02
2013-11-13,41.4,32.2,26.8,17.9,15.5,11.8,66,51,31,30.24,30.13,8,1,8,0.00
2013-11-14,54.5,40.2,28.4,22.9,19.7,16.8,66,46,27,30.13,30.00,7,2,7,0.00
2013-11-15,57.4,42.4,30.7,32.4,25.4,18.6,68,52,34,30.11,30.00,4,0,4,0.00
2013-11-16,63.7,48.0,37.0,46.6,38.7,26.0,85,71,52,30.19,30.08,5,0,5,0.02
2013-11-17,59.4,53.7,43.3,55.7,49.9,39.1,90,87,84,30.14,29.64,4,0,4,0.00
2013-11-18,66.2,58.8,49.6,58.2,43.2,28.6,91,60,33,29.64,29.45,10,3,10,0.18
2013-11-19,49.5,42.6,33.8,30.4,25.2,20.2,58,50,44,30.21,29.64,9,3,9,0.00
2013-11-20,46.4,34.5,28.4,20.6,18.0,14.5,66,52,31,30.47,30.21,3,0,3,0.00
2013-11-21,52.9,39.7,24.1,38.3,29.1,16.3,77,66,54,30.48,30.24,0,0,0,0.00
2013-11-22,57.0,51.3,46.0,50.1,44.8,37.2,86,78,71,30.24,29.75,0,0,0,0.07
2013-11-23,53.4,41.3,28.9,46.8,25.8,7.8,83,55,40,29.91,29.74,0,0,0,0.01
2013-11-24,31.3,25.9,22.1,9.4,6.1,1.3,50,43,28,30.23,29.86,0,0,0,0.00
2013-11-25,38.5,29.1,21.9,16.1,12.5,7.0,62,50,38,30.34,30.18,0,0,0,0.00
2013-11-26,45.7,36.5,32.7,43.5,25.0,15.2,93,64,47,30.18,29.63,0,0,0,0.41
2013-11-27,59.7,46.6,33.8,57.7,42.4,21.8,94,85,61,29.63,29.18,0,0,0,1.83
2013-11-28,35.4,31.5,29.1,22.8,18.3,13.0,73,59,41,30.32,29.58,0,0,0,0.00
2013-11-29,38.1,32.2,26.2,24.0,21.3,14.6,78,64,51,30.58,30.31,0,0,0,0.00
2013-11-30,37.8,29.7,20.7,25.6,18.5,12.3,72,63,49,30.62,30.22,0,0,0,0.03
2013-12-1,51.6,39.7,30.6,36.5,29.9,24.3,80,68,51,30.22,29.85,0,0,0,0.00
2013-12-2,46.9,39.1,32.4,38.9,33.1,28.3,87,79,72,29.85,29.73,0,0,0,0.00
2013-12-3,55.8,38.8,29.1,42.2,32.6,26.0,90,79,57,29.85,29.70,0,0,0,0.00
2013-12-4,52.2,41.4,31.3,42.3,35.3,27.9,89,79,66,29.98,29.85,0,0,0,0.00
2013-12-5,55.0,49.9,45.5,52.8,46.6,39.0,92,88,78,29.97,29.76,0,0,0,0.04
2013-12-6,55.8,46.6,35.6,53.3,44.0,32.8,92,91,89,30.00,29.70,0,0,0,0.84
2013-12-7,41.4,35.7,29.8,33.4,28.0,18.2,92,75,51,30.36,29.93,0,0,0,0.09
2013-12-8,33.4,29.5,25.3,25.7,20.4,16.0,85,69,61,30.44,30.22,0,0,0,0.00
2013-12-9,37.8,33.5,29.3,35.0,30.8,25.5,91,89,85,30.23,29.79,0,0,0,0.14
2013-12-10,35.4,31.7,25.9,32.8,28.8,20.6,92,89,80,29.96,29.70,0,0,0,0.07
2013-12-11,36.7,28.0,23.2,22.8,19.2,16.9,81,70,55,30.15,29.96,0,0,0,0.09
2013-12-12,30.2,24.3,21.2,18.0,10.8,7.1,71,56,44,30.19,29.98,0,0,0,0.01
2013-12-13,36.7,27.0,18.7,18.8,13.7,7.3,70,57,46,30.16,29.95,0,0,0,0.01
2013-12-14,31.1,23.8,19.2,28.1,17.9,14.9,89,78,66,30.34,29.65,0,0,0,0.00
2013-12-15,39.9,33.7,28.9,35.2,28.9,23.3,91,83,70,29.82,29.35,0,0,0,0.36
2013-12-16,31.8,27.0,18.3,24.4,14.5,10.4,76,59,44,30.22,29.81,0,0,0,0.00
2013-12-17,28.6,23.7,18.0,24.2,18.8,11.1,86,81,74,30.22,29.91,0,0,0,0.00
2013-12-18,39.4,27.9,17.8,26.2,20.5,14.0,88,74,51,30.14,29.90,0,0,0,0.06
2013-12-19,44.6,33.1,22.6,30.8,24.9,16.8,83,72,54,30.16,29.99,0,0,0,0.10
2013-12-20,48.9,39.6,30.7,37.6,32.2,27.0,88,75,59,30.08,29.93,0,0,0,0.03
2013-12-21,63.5,49.6,39.9,51.7,43.9,35.5,91,81,63,29.97,29.74,4,0,4,0.01
2013-12-22,69.3,63.2,53.1,62.9,57.5,50.6,95,82,72,29.97,29.80,5,2,13,0.00
2013-12-23,59.6,53.1,40.2,58.1,50.6,31.2,98,91,70,30.16,29.90,14,0,14,0.58
2013-12-24,40.2,34.1,24.3,31.4,22.6,9.0,92,63,48,30.36,30.09,18,1,18,0.00
2013-12-25,29.2,23.3,16.9,17.2,9.4,6.0,69,55,43,30.55,30.36,15,0,15,0.00
2013-12-26,36.2,29.9,25.3,26.9,22.5,16.9,85,74,63,30.44,30.17,11,0,11,0.00
2013-12-27,40.3,31.8,24.9,24.7,21.8,18.6,86,68,47,30.37,30.27,12,0,12,0.00
2013-12-28,55.6,39.2,25.4,29.7,26.0,21.6,87,62,36,30.30,30.07,14,1,14,0.00
2013-12-29,45.2,39.2,33.2,39.7,34.4,27.9,96,84,60,30.08,29.44,10,0,10,0.82
2013-12-30,41.7,33.4,20.7,38.0,25.8,10.1,97,75,53,30.21,29.69,16,1,16,0.00
2013-12-31,31.5,24.7,18.3,22.5,13.0,7.9,73,61,49,30.29,30.07,11,1,11,0.00
2014-1-1,32.2,27.0,20.4,20.2,14.6,7.7,70,59,50,30.42,30.27,8,0,8,0.00
2014-1-2,30.0,23.1,11.7,22.5,17.9,8.5,89,81,61,30.27,29.71,10,1,10,0.00